Time,TemperatureF,DewpointF,PressureIn,WindDirection,WindDirectionDegrees,WindSpeedMPH,WindSpeedGustMPH,Humidity,HourlyPrecipIn,Conditions,Clouds,dailyrainin,SoftwareType,DateUTC
2013-08-28 12:24:00,87.0,72.0,30.08,ESE,119,2.0,6.0,61,0.00,,,0.00,,2013-08-28 17:24:00,
2013-08-28 12:52:00,88.0,72.0,30.08,SSE,163,3.0,10.0,60,0.00,,,0.00,,2013-08-28 17:52:00,
2013-08-28 13:22:00,89.0,71.0,30.07,SE,132,0.0,7.0,56,0.00,,,0.00,,2013-08-28 18:22:00,
2013-08-28 13:53:00,91.0,71.0,30.07,SSW,197,1.0,10.0,53,0.00,,,0.00,,2013-08-28 18:53:00,
2013-08-28 14:22:00,91.0,70.0,30.06,SW,228,4.0,7.0,51,0.00,,,0.00,,2013-08-28 19:22:00,
2013-08-28 14:52:00,91.0,70.0,30.06,SW,222,5.0,7.0,51,0.00,,,0.00,,2013-08-28 19:52:00,
2013-08-28 15:23:00,91.0,70.0,30.04,West,262,2.0,7.0,51,0.00,,,0.00,,2013-08-28 20:23:00,
2013-08-28 15:52:00,92.0,71.0,30.04,WSW,239,0.0,7.0,51,0.00,,,0.00,,2013-08-28 20:52:00,
2013-08-28 16:12:00,94.0,72.0,30.04,South,183,3.0,6.0,49,0.00,,,0.00,,2013-08-28 21:12:00,
2013-08-28 16:15:00,92.0,71.0,30.03,SSE,148,5.0,8.0,51,0.00,,,0.00,,2013-08-28 21:15:00,
2013-08-28 16:22:00,94.0,72.0,30.04,South,183,3.0,6.0,49,0.00,,,0.00,,2013-08-28 21:22:00,
2013-08-28 16:57:00,92.0,71.0,30.03,SSE,148,5.0,8.0,51,0.00,,,0.00,,2013-08-28 21:57:00,
2013-08-28 17:08:00,92.0,71.0,30.03,SSE,148,5.0,8.0,51,0.00,,,0.00,,2013-08-28 22:08:00,
2013-08-28 17:54:00,94.0,70.0,30.02,South,171,5.0,8.0,46,0.00,,,0.00,,2013-08-28 22:54:00,
2013-08-28 18:22:00,95.0,70.0,30.02,South,169,3.0,6.0,45,0.00,,,0.00,,2013-08-28 23:22:00,
2013-08-28 18:33:00,95.0,70.0,30.02,South,169,3.0,6.0,45,0.00,,,0.00,,2013-08-28 23:33:00,
2013-08-28 18:53:00,94.0,71.0,30.02,SE,134,0.0,7.0,48,0.00,,,0.00,,2013-08-28 23:53:00,
2013-08-28 20:12:00,94.0,70.0,30.02,South,189,1.0,5.0,46,0.00,,,0.00,,2013-08-29 01:12:00,
2013-08-28 20:52:00,88.0,73.0,30.04,SSE,149,0.0,5.0,61,0.00,,,0.00,,2013-08-29 01:52:00,
2013-08-28 21:03:00,88.0,73.0,30.04,SSE,149,0.0,5.0,61,0.00,,,0.00,,2013-08-29 02:03:00,
2013-08-28 21:22:00,86.0,72.0,30.04,SE,142,0.0,4.0,63,0.00,,,0.00,,2013-08-29 02:22:00,
2013-08-28 22:11:00,85.0,72.0,30.04,South,176,4.0,6.0,65,0.00,,,0.00,,2013-08-29 03:11:00,
2013-08-28 22:23:00,85.0,72.0,30.04,South,176,4.0,6.0,65,0.00,,,0.00,,2013-08-29 03:23:00,
2013-08-28 22:57:00,84.0,72.0,30.05,SE,141,3.0,7.0,67,0.00,,,0.00,,2013-08-29 03:57:00,
2013-08-28 23:08:00,84.0,72.0,30.05,SE,141,3.0,7.0,67,0.00,,,0.00,,2013-08-29 04:08:00,
2013-08-28 23:28:00,83.0,72.0,30.05,SSE,150,0.0,6.0,69,0.00,,,0.00,,2013-08-29 04:28:00,
2013-08-28 23:54:00,83.0,72.0,30.05,SE,145,4.0,7.0,70,0.00,,,0.00,,2013-08-29 04:54:00,